Location: Briis
(48.6240°N, 2.1211°E)
Time: 06:31:00
(UTC+00:00)

Cosmos 44 Rocket - Pass Details

Date: 25 September 2020
Orbit: 645 x 745 km, 65.1° (Epoch: 19 October)

Event Time Altitude Azimuth Distance (km) Brightness Sun altitude
Exits shadow 03:44:49 27° 193° (SSW) 1,272 4.3 -19.9°
Maximum altitude 03:47:15 60° 123° (ESE) 771 3.6 -19.5°
Drops below altitude 10° 03:52:03 10° 44° (NE) 2,149 6.8 -18.7°
Sets 03:54:27 0° 41° (NE) 3,087 7.7 -18.4°
